When you browse on this site, cookies collect data to enhance your experience and personalize the content and advertising you see.
Visit our Privacy Policy to learn more. By continuing to use the site, you agree to this use of cookies and data.
  • In Deutschland
  • Länderverzeichnis
  • Für 7 Tage
  • Wassertemperatur
  • Satellitenkarten
  • Wetterkarte
  • Widgets
  • user-avatar
    Anmelden

    Stündliche Wetter Goychay

    Heute, 16 Dezember, Sonntag

    Zeit Temperatur Niederschläge Wind Luftdruck Luftfeuchtigkeit
    00:00 +7°C° 0 mm 1 m/S 759 mmHg 53%
    01:00 +7°C° 0 mm 1 m/S 758 mmHg 53%
    02:00 +7°C° 0 mm 1 m/S 758 mmHg 54%
    03:00 +7°C° 0 mm 1 m/S 758 mmHg 57%
    04:00 +7°C° 0 mm 1 m/S 758 mmHg 57%
    05:00 +7°C° 0 mm 1 m/S 758 mmHg 57%
    06:00 +6°C° 0 mm 1 m/S 758 mmHg 57%
    07:00 +7°C° 0 mm 1 m/S 758 mmHg 55%
    08:00 +8°C° 0 mm 1 m/S 758 mmHg 52%
    09:00 +9°C° 0 mm 1 m/S 758 mmHg 50%
    10:00 +10°C° 0 mm 1 m/S 758 mmHg 48%
    11:00 +11°C° 0 mm 1 m/S 758 mmHg 46%
    12:00 +12°C° 0 mm 1 m/S 758 mmHg 44%
    13:00 +12°C° 0 mm 2 m/S 758 mmHg 45%
    14:00 +12°C° 0 mm 2 m/S 758 mmHg 46%
    15:00 +12°C° 0 mm 2 m/S 759 mmHg 46%
    16:00 +10°C° 0 mm 2 m/S 759 mmHg 51%
    17:00 +9°C° 0 mm 2 m/S 759 mmHg 55%
    18:00 +8°C° 0 mm 2 m/S 760 mmHg 59%
    19:00 +8°C° 0 mm 2 m/S 760 mmHg 63%
    20:00 +7°C° 0 mm 2 m/S 760 mmHg 67%
    21:00 +7°C° 0 mm 2 m/S 760 mmHg 71%
    22:00 +6°C° 0 mm 2 m/S 760 mmHg 74%
    23:00 +6°C° 0 mm 2 m/S 760 mmHg 76%

    Morgen, 17 Dezember, Montag

    Zeit Temperatur Niederschläge Wind Luftdruck Luftfeuchtigkeit
    00:00 +7°C° 0 mm 1 m/S 760 mmHg 79%
    01:00 +7°C° 0 mm 1 m/S 760 mmHg 79%
    02:00 +7°C° 0 mm 1 m/S 760 mmHg 79%
    03:00 +7°C° 0 mm 1 m/S 760 mmHg 80%
    04:00 +6°C° 0 mm 1 m/S 760 mmHg 80%
    05:00 +6°C° 0 mm 1 m/S 760 mmHg 81%
    06:00 +6°C° 0 mm 1 m/S 760 mmHg 82%
    07:00 +7°C° 0 mm 1 m/S 760 mmHg 80%
    08:00 +7°C° 0 mm 1 m/S 760 mmHg 78%
    09:00 +7°C° 0 mm 1 m/S 760 mmHg 77%
    10:00 +8°C° 0 mm 1 m/S 759 mmHg 74%
    11:00 +8°C° 0 mm 2 m/S 759 mmHg 72%
    12:00 +8°C° 0 mm 2 m/S 758 mmHg 70%
    13:00 +8°C° 0 mm 2 m/S 758 mmHg 71%
    14:00 +8°C° 0 mm 2 m/S 758 mmHg 71%
    15:00 +8°C° 0 mm 2 m/S 758 mmHg 72%
    16:00 +7°C° 0 mm 2 m/S 758 mmHg 75%
    17:00 +7°C° 0 mm 2 m/S 758 mmHg 77%
    18:00 +8°C° 0 mm 1 m/S 758 mmHg 80%
    19:00 +8°C° 0 mm 1 m/S 758 mmHg 80%
    20:00 +8°C° 0 mm 1 m/S 758 mmHg 80%
    21:00 +7°C° 0 mm 1 m/S 758 mmHg 80%
    22:00 +7°C° 0.4 mm 1 m/S 758 mmHg 81%
    23:00 +7°C° 0.4 mm 1 m/S 758 mmHg 82%

    übermorgen, 18 Dezember, Dienstag

    Zeit Temperatur Niederschläge Wind Luftdruck Luftfeuchtigkeit
    00:00 +7°C° 0.4 mm 1 m/S 758 mmHg 83%
    01:00 +7°C° 0.3 mm 1 m/S 758 mmHg 83%
    02:00 +7°C° 0.3 mm 1 m/S 758 mmHg 83%
    03:00 +7°C° 0.3 mm 1 m/S 758 mmHg 82%
    04:00 +7°C° 0.5 mm 1 m/S 757 mmHg 83%
    05:00 +7°C° 0.5 mm 1 m/S 757 mmHg 84%
    06:00 +7°C° 0.5 mm 1 m/S 757 mmHg 85%
    07:00 +7°C° 0.5 mm 1 m/S 758 mmHg 84%
    08:00 +7°C° 0.5 mm 1 m/S 758 mmHg 83%
    09:00 +7°C° 0.5 mm 1 m/S 758 mmHg 82%
    10:00 +7°C° 0.4 mm 1 m/S 758 mmHg 81%
    11:00 +8°C° 0.4 mm 1 m/S 758 mmHg 81%
    12:00 +8°C° 0.4 mm 1 m/S 758 mmHg 81%
    13:00 +8°C° 0.1 mm 1 m/S 758 mmHg 81%
    14:00 +8°C° 0.1 mm 1 m/S 758 mmHg 81%
    15:00 +8°C° 0.1 mm 1 m/S 758 mmHg 81%
    16:00 +8°C° 0 mm 1 m/S 758 mmHg 84%
    17:00 +7°C° 0 mm 1 m/S 759 mmHg 86%
    18:00 +7°C° 0 mm 1 m/S 759 mmHg 89%
    19:00 +7°C° 0 mm 1 m/S 759 mmHg 90%
    20:00 +7°C° 0 mm 1 m/S 760 mmHg 90%
    21:00 +7°C° 0 mm 1 m/S 760 mmHg 91%
    22:00 +7°C° 0 mm 1 m/S 760 mmHg 91%
    23:00 +6°C° 0 mm 1 m/S 760 mmHg 91%

    19 Dezember, Mittwoch

    Zeit Temperatur Niederschläge Wind Luftdruck Luftfeuchtigkeit
    00:00 +6°C° 0 mm 1 m/S 760 mmHg 92%
    01:00 +6°C° 0 mm 1 m/S 760 mmHg 92%
    02:00 +6°C° 0 mm 1 m/S 760 mmHg 91%
    03:00 +5°C° 0 mm 0 m/S 760 mmHg 91%
    04:00 +5°C° 0 mm 0 m/S 760 mmHg 91%
    05:00 +6°C° 0 mm 1 m/S 760 mmHg 91%
    06:00 +6°C° 0 mm 1 m/S 760 mmHg 91%
    07:00 +6°C° 0 mm 1 m/S 760 mmHg 88%
    08:00 +7°C° 0 mm 1 m/S 760 mmHg 86%
    09:00 +7°C° 0 mm 1 m/S 760 mmHg 84%
    10:00 +8°C° 0 mm 1 m/S 759 mmHg 81%
    11:00 +8°C° 0 mm 1 m/S 759 mmHg 78%
    12:00 +9°C° 0 mm 1 m/S 758 mmHg 74%
    13:00 +9°C° 0 mm 1 m/S 758 mmHg 74%
    14:00 +9°C° 0 mm 1 m/S 758 mmHg 73%
    15:00 +9°C° 0 mm 1 m/S 758 mmHg 72%
    16:00 +9°C° 0 mm 1 m/S 758 mmHg 75%
    17:00 +8°C° 0 mm 1 m/S 758 mmHg 79%
    18:00 +6°C° 0 mm 0 m/S 758 mmHg 83%
    19:00 +7°C° 0 mm 1 m/S 758 mmHg 83%
    20:00 +7°C° 0 mm 1 m/S 758 mmHg 82%
    21:00 +7°C° 0 mm 1 m/S 758 mmHg 82%
    22:00 +7°C° 0 mm 1 m/S 758 mmHg 79%
    23:00 +7°C° 0 mm 1 m/S 758 mmHg 77%

    20 Dezember, Donnerstag

    Zeit Temperatur Niederschläge Wind Luftdruck Luftfeuchtigkeit
    00:00 +7°C° 0 mm 1 m/S 757 mmHg 74%
    01:00 +7°C° 0 mm 1 m/S 757 mmHg 73%
    02:00 +7°C° 0 mm 1 m/S 757 mmHg 71%
    03:00 +7°C° 0 mm 1 m/S 757 mmHg 70%
    04:00 +7°C° 0 mm 1 m/S 756 mmHg 71%
    05:00 +6°C° 0 mm 2 m/S 756 mmHg 73%
    06:00 +6°C° 0 mm 2 m/S 756 mmHg 74%
    07:00 +6°C° 0 mm 2 m/S 756 mmHg 72%
    08:00 +7°C° 0 mm 2 m/S 756 mmHg 71%
    09:00 +7°C° 0 mm 2 m/S 756 mmHg 69%
    10:00 +8°C° 0 mm 2 m/S 756 mmHg 67%
    11:00 +9°C° 0 mm 2 m/S 755 mmHg 64%
    12:00 +10°C° 0 mm 2 m/S 755 mmHg 61%
    13:00 +10°C° 0 mm 2 m/S 755 mmHg 61%
    14:00 +10°C° 0 mm 2 m/S 755 mmHg 60%
    15:00 +10°C° 0 mm 2 m/S 755 mmHg 59%
    16:00 +10°C° 0 mm 1 m/S 755 mmHg 63%
    17:00 +10°C° 0 mm 1 m/S 755 mmHg 66%
    18:00 +9°C° 0 mm 1 m/S 756 mmHg 70%
    19:00 +9°C° 0.1 mm 1 m/S 756 mmHg 70%
    20:00 +8°C° 0.1 mm 1 m/S 756 mmHg 70%
    21:00 +8°C° 0.1 mm 1 m/S 756 mmHg 70%
    22:00 +8°C° 0.1 mm 1 m/S 756 mmHg 69%
    23:00 +8°C° 0.1 mm 1 m/S 756 mmHg 69%

    21 Dezember, Freitag

    Zeit Temperatur Niederschläge Wind Luftdruck Luftfeuchtigkeit
    00:00 +8°C° 0.1 mm 1 m/S 757 mmHg 69%
    01:00 +8°C° 0 mm 1 m/S 757 mmHg 69%
    02:00 +8°C° 0 mm 1 m/S 757 mmHg 69%
    03:00 +6°C° 0 mm 0 m/S 757 mmHg 69%
    04:00 +6°C° 0 mm 0 m/S 757 mmHg 68%
    05:00 +6°C° 0 mm 0 m/S 757 mmHg 68%
    06:00 +6°C° 0 mm 0 m/S 757 mmHg 67%
    07:00 +7°C° 0 mm 0 m/S 758 mmHg 65%
    08:00 +7°C° 0 mm 0 m/S 758 mmHg 63%
    09:00 +9°C° 0 mm 1 m/S 758 mmHg 61%
    10:00 +10°C° 0 mm 1 m/S 758 mmHg 60%
    11:00 +10°C° 0 mm 1 m/S 758 mmHg 60%
    12:00 +11°C° 0 mm 1 m/S 757 mmHg 60%
    13:00 +11°C° 0 mm 1 m/S 757 mmHg 61%
    14:00 +11°C° 0 mm 1 m/S 757 mmHg 63%
    15:00 +11°C° 0 mm 1 m/S 757 mmHg 64%
    16:00 +10°C° 0 mm 1 m/S 757 mmHg 68%
    17:00 +9°C° 0 mm 1 m/S 757 mmHg 73%
    18:00 +8°C° 0 mm 0 m/S 757 mmHg 78%
    19:00 +8°C° 0.1 mm 1 m/S 757 mmHg 80%
    20:00 +8°C° 0.1 mm 1 m/S 757 mmHg 82%
    21:00 +8°C° 0.1 mm 1 m/S 758 mmHg 84%
    22:00 +8°C° 0.1 mm 1 m/S 757 mmHg 85%
    23:00 +7°C° 0.1 mm 1 m/S 757 mmHg 86%
    Mehr zeigen